Regional Weather Roundup
Issued by NWS Northern Indiana

Home | Current Version | Previous Version | Graphics & Text | Print | Product List | Glossary On
Versions: 1 2 3 4 5 6 7 8 9 10 11 12 13 14 15 16 17 18 19 20 21 22 23 24 25 26 27 28 29 30 31 32 33 34 35 36 37 38 39 40 41 42 43 44 45 46 47 48 49 50
000
ASUS43 KIWX 251510
RWRIWX

KIWX WEATHER ROUNDUP
NATIONAL WEATHER SERVICE NORTHERN INDIANA
1100 AM EDT FRI JUL 25 2014

NOTE: "FAIR" INDICATES FEW OR NO CLOUDS BELOW 12,000 FEET WITH NO
SIGNIFICANT WEATHER AND/OR OBSTRUCTIONS TO VISIBILITY.

* THESE STATIONS ARE NOT UNDER NWS QUALITY CONTROL. THEY ALSO MAY NOT
  REPORT WEATHER SUCH AS PRECIPITATION OR FOG.

INZ001>027-251600-
NORTHERN INDIANA

CITY           SKY/WX    TMP DP  RH WIND       PRES   REMARKS
GARY*          PTSUNNY   70  57  64 S5        30.05F
VALPARAISO     PTSUNNY   66  57  72 S6        30.06F
MICHIGAN CITY* CLOUDY    64  57  77 S3        30.06F
LAPORTE*       CLOUDY    64  56  75 SW6       30.07F
KNOX*          PTSUNNY   66  56  70 SW8       30.06F
SOUTH BEND     CLOUDY    67  55  65 SW10      30.07F
ELKHART*       CLOUDY    68  55  64 S3        30.07
GOSHEN         CLOUDY    71  56  58 SW7       30.07F
MONTICELLO*    SUNNY     69  59  70 S8        30.08F
LOGANSPORT*    MOSUNNY   70  55  60 S9        30.09F
ROCHESTER*     PTSUNNY   72  57  60 S5        30.08F
WARSAW*        PTSUNNY   68  55  64 SW5       30.09F
ANGOLA*        SUNNY     72  63  73 SW8       30.09F
FORT WAYNE     PTSUNNY   70  55  59 SW7       30.10F
HUNTINGTON*    PTSUNNY   69  55  62 SW6       30.09F
PERU/GRISSOM   MOSUNNY   71  60  67 SW9       30.09F
MARION*        PTSUNNY   67  54  61 SW8       30.11F

$$
INZ028>050-251600-
CENTRAL INDIANA

CITY           SKY/WX    TMP DP  RH WIND       PRES   REMARKS
LAFAYETTE      MOSUNNY   70  55  59 SW7       30.08F
KOKOMO*        MOSUNNY   70  57  64 S10       30.10F
MUNCIE*        CLOUDY    71  53  52 VRB3      30.12F
INDIANAPOLIS   MOSUNNY   69  55  60 S6        30.11F

$$
MIZ043>046-050>051-056>058-064>065-071>073-077>080-251600-
SOUTHWEST LOWER MICHIGAN

CITY           SKY/WX    TMP DP  RH WIND       PRES   REMARKS
BATTLE CREEK   PTSUNNY   70  54  56 SW8       30.07F
BENTON HARBOR  CLOUDY    68  56  65 VRB6      30.05F
COLDWATER*     PTSUNNY   71  56  60 SW8       30.08F
HILLSDALE*     PTSUNNY   70  57  63 SW5       30.09F
HOLLAND        PTSUNNY   70  57  63 S6        30.05F
GRAND RAPIDS   PTSUNNY   69  54  58 SW7       30.06F
KALAMAZOO      PTSUNNY   69  55  60 VRB6      30.06F
STURGIS*       PTSUNNY   68  57  68 S6        30.06F
THREE RIVERS*  FAIR      70  58  66 SW8       30.07F

$$
OHZ001>008-015>018-024>025-251600-
NORTHWEST OHIO

CITY           SKY/WX    TMP DP  RH WIND       PRES   REMARKS
WAUSEON*       PTSUNNY   70  55  60 SW8       30.11F
DEFIANCE       PTSUNNY   70  52  52 SW9       30.11F
FINDLAY        MOSUNNY   69  52  54 S3        30.11R
TOLEDO EXPRESS PTSUNNY   70  52  52 SW8       30.11S
TOLEDO METCALF PTSUNNY   70  53  54 S9        30.11F
LIMA           FAIR      70  53  54 S5        30.12R

$$
&&



USA.gov is the U.S. government's official web portal to all federal, state and local government web resources and services.